Wind_Speed
53 54 55 56 58 58 58 59 60 61 63 65 67 68 69 69 70 70 70 70 70 70 70 69 68 68 68 68 67 67 66 65 64 63 63 62 62 62
56 57 58 59 59 60 61 62 63 64 64 65 66 67 67 67 68 68 68 67 67 67 67 67 66 66 65 63 62 61 60 59 58 58 57 58 58 58
59 59 60 60 60 61 63 63 64 64 64 64 65 65 65 65 65 65 64 64 64 64 63 62 60 58 57 56 55 53 53 53 53 53 53 53 54 54
60 60 61 61 62 62 62 63 63 63 62 61 61 62 62 62 61 61 61 61 60 58 56 54 52 51 50 49 49 48 48 48 48 48 48 48 48 49
60 61 61 62 62 62 61 61 61 61 60 59 59 59 58 58 57 56 55 53 52 50 48 47 46 45 45 44 44 43 43 43 43 43 43 43 43 43
61 61 61 60 60 59 59 58 58 59 58 57 56 54 53 52 50 48 46 45 43 43 42 41 41 40 40 40 39 39 39 39 39 39 39 39 40 40
60 59 58 57 57 56 56 56 56 56 54 51 49 47 46 45 44 42 40 37 37 38 37 36 36 35 35 35 35 35 35 35 35 35 36 36 37 37
57 55 54 54 54 54 55 54 52 49 46 44 42 41 40 39 37 35 33 32 32 32 31 31 31 30 30 30 30 30 30 30 30 31 33 33 34 34
54 52 52 51 51 50 49 46 44 41 39 37 35 34 32 30 28 27 28 28 29 28 27 27 27 27 28 27 27 27 27 27 27 28 29 30 30 31
50 48 47 46 45 43 40 37 35 34 32 30 29 27 24 23 23 23 24 24 25 25 24 24 25 26 26 25 25 25 25 25 25 26 26 26 27 28
43 42 40 39 36 33 30 29 28 27 25 23 21 20 19 20 20 21 21 21 22 23 23 22 22 23 23 23 22 22 21 22 22 23 23 23 23 24
35 33 31 29 26 24 23 22 21 20 19 17 17 17 18 18 18 19 19 19 19 19 20 20 20 20 20 21 20 19 19 18 18 18 18 18 19 20
25 23 21 19 17 17 16 16 15 14 14 14 15 15 16 16 17 17 18 18 18 19 19 19 19 19 19 19 18 18 17 16 15 14 14 14 14 15
15 14 12 11 11 10 10 10 10 11 11 12 13 14 15 15 16 16 17 18 19 19 19 19 19 18 18 18 18 17 16 15 13 12 12 12 12 13
8 7 6 6 6 7 7 8 9 10 11 11 12 14 15 15 15 16 17 18 19 20 20 20 20 19 19 19 18 17 16 14 13 11 11 9 9 9
4 3 4 4 5 6 7 8 9 10 11 11 12 14 15 16 16 17 18 19 19 20 20 21 21 20 20 19 19 17 16 15 13 12 10 8 6 5
5 5 6 6 7 8 8 9 11 11 12 12 13 15 16 17 17 18 18 19 19 20 20 20 21 20 20 20 20 18 17 16 14 12 11 9 6 4
7 8 8 8 9 9 10 11 12 13 13 14 15 15 16 17 18 18 18 19 19 20 20 21 21 21 21 21 20 19 18 17 15 13 12 11 9 7
9 9 9 10 11 11 11 12 13 14 15 16 16 17 17 17 18 19 19 19 19 20 20 21 22 22 21 21 20 20 20 19 17 16 15 14 13 11
10 10 11 11 12 12 13 14 15 16 17 17 18 18 18 19 19 19 19 19 18 19 20 21 21 22 22 21 21 21 21 21 20 19 18 18 17 15
10 11 11 12 12 13 14 14 15 16 17 18 19 19 19 19 19 19 19 19 18 18 19 20 21 22 23 23 23 23 22 22 22 22 21 21 20 19
11 11 11 11 12 13 14 15 16 17 18 18 19 19 20 20 19 19 20 19 18 18 18 19 20 21 22 22 22 23 23 23 22 23 23 22 22 22
11 11 11 11 12 13 14 15 16 17 18 19 19 19 19 20 20 19 19 19 19 18 18 19 19 20 20 21 22 22 22 23 23 23 23 23 23 23
Wind_Direction
291 292 291 291 291 290 289 289 288 288 287 287 287 287 287 286 286 286 286 286 285 285 285 284 283 283 282 281 280 278 276 274 273 271 269 267 265 262
291 291 291 291 291 291 291 290 289 289 288 288 288 287 287 287 288 288 288 288 288 287 286 285 284 284 283 282 280 279 277 275 273 271 269 267 264 262
291 291 291 291 291 291 291 291 290 290 290 290 289 289 289 289 289 289 289 289 289 288 287 287 286 284 283 282 281 279 277 275 274 272 270 267 264 262
291 291 291 291 291 291 291 291 291 291 291 291 291 291 291 291 291 291 291 291 290 289 287 287 285 284 284 283 282 280 278 276 274 272 269 267 264 261
291 291 291 292 292 292 292 292 293 293 293 293 292 292 292 292 293 293 293 292 292 291 289 288 287 286 285 284 282 280 279 277 274 272 269 266 262 260
291 291 292 292 292 292 293 293 293 294 294 294 294 294 294 295 295 296 296 296 295 294 293 292 290 289 287 285 283 281 280 278 275 272 269 266 263 260
290 291 291 291 292 292 292 293 294 294 294 295 296 296 297 297 298 298 298 297 297 297 297 295 293 292 290 288 285 283 281 279 276 272 269 266 262 259
289 290 290 291 292 292 293 294 294 295 296 297 298 299 299 299 299 299 299 299 299 300 300 298 297 296 296 293 290 287 284 282 278 274 270 267 263 259
289 290 290 291 292 293 294 295 296 297 299 300 301 302 302 303 303 304 304 305 305 304 303 302 301 301 300 298 295 292 289 285 281 277 272 268 263 260
288 289 290 292 293 294 296 297 299 301 303 304 305 307 309 309 311 312 312 312 312 312 312 309 307 306 305 304 300 297 292 288 284 280 275 270 264 260
289 290 291 292 294 295 297 299 302 305 307 310 312 315 317 319 321 322 323 323 322 320 320 319 316 314 312 312 310 305 299 294 288 283 276 271 265 261
289 291 292 293 294 297 300 304 307 311 315 318 322 325 327 329 331 332 333 333 332 331 329 328 327 325 323 322 321 316 310 304 297 290 282 275 268 262
292 292 293 294 297 301 306 311 315 320 324 328 332 335 337 338 340 342 343 344 343 341 340 339 337 335 334 332 331 328 323 317 310 302 293 282 273 266
295 296 298 302 306 314 322 328 333 337 339 342 344 346 346 346 348 350 351 351 351 351 350 349 347 345 344 343 341 339 336 331 325 317 306 294 281 270
306 311 317 324 334 342 348 351 353 353 353 355 355 355 356 356 356 356 356 357 357 357 357 356 355 353 352 351 350 348 346 343 340 335 327 314 297 276
344 357 10 19 18 15 13 11 8 6 6 4 3 2 3 3 2 2 1 0 1 2 2 3 2 1 1 0 0 1 360 357 354 351 348 341 327 299
60 60 54 48 42 35 30 25 20 16 12 9 8 8 8 8 7 6 6 5 5 5 7 8 8 8 10 12 11 9 8 9 9 10 12 12 12 10
73 69 63 56 48 43 36 29 24 20 16 13 12 10 10 11 10 9 9 9 10 11 12 13 14 15 17 18 18 20 22 23 25 29 32 35 41 51
73 69 63 57 52 46 39 32 27 23 19 17 15 13 12 11 11 11 12 12 13 15 17 19 20 21 22 23 26 29 31 34 39 43 45 49 54 59
73 69 64 59 52 45 39 33 29 26 23 20 18 16 15 13 12 13 14 16 17 19 21 23 25 27 29 31 34 37 40 44 48 51 52 56 59 63
73 68 62 55 48 41 35 31 28 25 21 18 17 16 14 13 14 15 16 18 20 22 24 27 29 31 34 38 41 44 48 50 53 56 58 59 61 66
70 63 55 49 42 36 31 27 23 20 18 16 15 15 16 16 17 18 20 22 24 27 30 31 34 36 40 43 46 49 52 54 56 59 61 64 67 70
63 55 48 42 37 33 29 25 22 20 18 16 17 18 19 20 21 22 24 27 30 32 34 36 37 40 43 46 48 51 54 56 58 61 63 65 68 70
Height
5763 5759 5755 5751 5747 5742 5737 5733 5729 5724 5719 5710 5703 5696 5689 5684 5678 5672 5667 5661 5656 5650 5646 5641 5636 5632 5629 5625 5622 5619 5617 5615 5615 5614 5615 5616 5618 5619
5749 5745 5740 5736 5731 5726 5721 5715 5711 5706 5701 5694 5686 5679 5672 5666 5660 5654 5648 5643 5637 5631 5626 5622 5617 5613 5609 5605 5602 5600 5597 5596 5595 5595 5595 5596 5598 5599
5734 5730 5725 5720 5715 5709 5704 5698 5692 5687 5683 5677 5669 5662 5655 5649 5643 5637 5631 5625 5619 5613 5608 5603 5598 5594 5590 5587 5584 5582 5580 5578 5577 5577 5577 5577 5579 5581
5719 5714 5709 5704 5699 5693 5687 5681 5675 5670 5665 5660 5653 5645 5639 5632 5627 5621 5614 5608 5602 5596 5591 5586 5582 5578 5575 5571 5569 5566 5564 5562 5561 5560 5560 5561 5562 5563
5702 5697 5692 5687 5682 5676 5671 5665 5660 5654 5648 5644 5637 5630 5623 5617 5612 5605 5599 5592 5586 5581 5576 5572 5568 5564 5561 5557 5555 5552 5550 5548 5547 5546 5545 5545 5546 5548
5686 5681 5676 5671 5666 5661 5655 5650 5645 5639 5633 5628 5622 5615 5609 5603 5597 5592 5586 5580 5574 5568 5564 5560 5556 5552 5548 5545 5542 5540 5538 5535 5534 5532 5532 5532 5533 5534
5670 5665 5661 5656 5651 5646 5641 5636 5631 5625 5619 5614 5608 5603 5597 5591 5586 5580 5575 5570 5564 5559 5555 5550 5545 5541 5537 5534 5531 5528 5526 5524 5522 5520 5520 5520 5520 5521
5654 5650 5646 5642 5637 5632 5627 5622 5617 5613 5608 5602 5597 5592 5586 5581 5576 5571 5566 5562 5557 5552 5547 5542 5537 5533 5528 5525 5521 5518 5516 5513 5511 5510 5509 5509 5509 5510
5640 5636 5632 5628 5623 5619 5614 5610 5606 5601 5597 5593 5588 5583 5578 5573 5569 5564 5559 5554 5549 5545 5540 5535 5530 5525 5521 5517 5513 5510 5507 5504 5502 5500 5499 5499 5499 5500
5626 5623 5619 5616 5612 5608 5604 5600 5596 5593 5589 5585 5580 5576 5571 5567 5563 5559 5554 5549 5543 5538 5533 5529 5523 5519 5514 5510 5506 5503 5499 5496 5494 5492 5490 5490 5490 5490
5614 5611 5608 5605 5602 5599 5596 5593 5589 5585 5582 5578 5575 5571 5567 5563 5558 5554 5549 5544 5539 5533 5528 5523 5519 5513 5508 5504 5500 5496 5492 5489 5486 5484 5483 5482 5482 5482
5603 5601 5599 5597 5595 5593 5590 5587 5584 5580 5577 5574 5571 5567 5563 5559 5555 5551 5546 5541 5536 5531 5525 5520 5515 5510 5505 5500 5495 5491 5487 5483 5480 5478 5476 5475 5474 5475
5596 5594 5593 5592 5590 5588 5586 5584 5581 5578 5575 5572 5569 5565 5561 5557 5553 5548 5544 5539 5534 5528 5523 5518 5513 5507 5502 5497 5492 5488 5483 5479 5476 5473 5471 5470 5469 5469
5591 5590 5589 5588 5587 5586 5584 5581 5579 5576 5574 5571 5568 5564 5560 5556 5552 5547 5543 5538 5532 5527 5522 5516 5511 5506 5501 5495 5490 5486 5481 5477 5473 5470 5468 5466 5465 5464
5589 5588 5587 5587 5586 5585 5583 5581 5578 5576 5573 5571 5567 5564 5560 5556 5551 5547 5542 5537 5532 5527 5521 5515 5510 5505 5500 5494 5489 5484 5480 5476 5472 5468 5466 5463 5462 5461
5588 5588 5587 5587 5586 5584 5583 5581 5579 5576 5573 5571 5567 5564 5560 5555 5551 5546 5542 5537 5532 5527 5522 5516 5510 5505 5499 5494 5489 5484 5479 5475 5471 5467 5464 5462 5460 5459
5589 5589 5588 5588 5587 5585 5584 5582 5579 5577 5574 5571 5567 5564 5560 5555 5551 5547 5542 5537 5532 5527 5522 5517 5512 5506 5500 5495 5490 5485 5480 5475 5471 5468 5465 5462 5460 5459
5591 5591 5590 5589 5588 5587 5585 5583 5580 5578 5575 5571 5568 5564 5560 5556 5552 5547 5543 5538 5534 5529 5524 5518 5513 5508 5503 5497 5492 5487 5482 5477 5473 5470 5466 5464 5462 5460
5594 5593 5592 5591 5590 5589 5587 5584 5582 5579 5576 5572 5569 5565 5561 5557 5553 5548 5544 5539 5535 5530 5526 5520 5515 5510 5505 5500 5495 5490 5485 5480 5476 5473 5470 5467 5465 5463
5597 5596 5595 5594 5593 5591 5589 5587 5584 5581 5577 5574 5570 5566 5562 5558 5554 5550 5545 5541 5537 5532 5528 5523 5519 5514 5509 5504 5499 5494 5489 5485 5481 5478 5475 5472 5470 5468
5600 5599 5598 5597 5596 5594 5591 5589 5586 5583 5579 5576 5572 5568 5564 5559 5555 5551 5547 5543 5539 5535 5531 5527 5522 5517 5512 5508 5503 5499 5495 5491 5487 5484 5481 5478 5476 5474
5604 5603 5602 5600 5598 5596 5594 5591 5588 5585 5581 5577 5573 5569 5565 5561 5557 5553 5549 5545 5541 5537 5533 5530 5525 5521 5517 5513 5509 5505 5501 5498 5494 5491 5488 5485 5483 5481
5607 5606 5605 5603 5601 5598 5596 5593 5590 5587 5583 5579 5575 5571 5567 5563 5559 5555 5552 5548 5544 5540 5537 5533 5529 5526 5522 5518 5515 5511 5508 5504 5501 5498 5496 5493 5490 5489